Weather History for Clarksburg, WV

Change the Weather History Date:

Tuesday, February 12, 2013

  Actual Average Record
Temperature  
Mean Temperature 41 °F -  
Max Temperature 50 °F 40 °F 77 °F (1932)
Min Temperature 30 °F 19 °F -8 °F (1979)
Degree Days  
Heating Degree Days 24    
Moisture  
Dew Point 23 °F    
Average Humidity 49    
Maximum Humidity 69    
Minimum Humidity 32    
Precipitation  
Precipitation 0.12 in - - ()
Sea Level Pressure  
Sea Level Pressure 29.99 in    
Wind  
Wind Speed 12 mph (WSW)    
Max Wind Speed 20 mph    
Max Gust Speed 29 mph    
Visibility 10 miles    
Events      
Averages and records for this station are not official NWS values.
T = Trace of Precipitation, MM = Missing Value Source: NWS Daily Summary

Daily Weather History Graph

Daily Weather History Graph

Search for Another Location

Airport:

Trip Planner

Search our weather history database for the weather conditions in past years. The results will help you decide how hot, cold, wet, or windy it might be!

Date:

Astronomy

Feb. 12, 2013 Rise Set
Actual Time 7:16 AM EST 5:54 PM EST
Civil Twilight 6:48 AM EST 6:22 PM EST
Nautical Twilight 6:16 AM EST 6:53 PM EST
Astronomical Twilight 5:45 AM EST 7:25 PM EST
Moon 8:13 AM EST (2/12) 8:52 PM EST (2/12)
Length of Visible Light 11h 33m
Length of Day
10h 38m
Waxing Crescent, 7% of the Moon is Illuminated
Feb 12
Waxing Crescent
Feb 17
First Quarter
Feb 25
Full
Mar 4
Last Quarter
Mar 11
New

Hourly Weather History & Observations

Time (EST) Temp. Windchill Dew Point Humidity Pressure Visibility Wind Dir Wind Speed Gust Speed Precip Events Conditions
12:53 AM 42.1 °F 34.2 °F 25.0 °F 51% 29.96 in 10.0 mi West 16.1 mph 21.9 mph N/A   Overcast
1:53 AM 42.1 °F 33.3 °F 23.0 °F 47% 29.97 in 10.0 mi West 19.6 mph 26.5 mph N/A   Overcast
2:53 AM 41.0 °F 32.8 °F 24.1 °F 51% 29.98 in 10.0 mi West 16.1 mph 25.3 mph N/A   Overcast
3:53 AM 39.9 °F 32.1 °F 23.0 °F 51% 29.99 in 10.0 mi WSW 13.8 mph 28.8 mph N/A   Overcast
4:53 AM 39.9 °F 32.1 °F 23.0 °F 51% 30.01 in 10.0 mi West 13.8 mph 19.6 mph N/A   Overcast
5:53 AM 37.9 °F 32.1 °F 24.1 °F 57% 30.02 in 10.0 mi West 8.1 mph - N/A   Mostly Cloudy
6:53 AM 37.0 °F 30.4 °F 24.1 °F 59% 30.04 in 10.0 mi WSW 9.2 mph - N/A   Partly Cloudy
7:53 AM 36.0 °F 28.0 °F 24.1 °F 62% 30.06 in 10.0 mi WSW 11.5 mph - N/A   Clear
8:53 AM 37.9 °F 30.5 °F 25.0 °F 60% 30.09 in 10.0 mi WSW 11.5 mph - N/A   Clear
9:53 AM 39.0 °F 31.8 °F 25.0 °F 57% 30.09 in 10.0 mi West 11.5 mph - N/A   Scattered Clouds
10:53 AM 41.0 °F 33.9 °F 24.1 °F 51% 30.09 in 10.0 mi West 12.7 mph 20.7 mph N/A   Clear
11:53 AM 43.0 °F 37.2 °F 23.0 °F 45% 30.05 in 10.0 mi West 10.4 mph 20.7 mph N/A   Clear
12:53 PM 46.0 °F 39.3 °F 24.1 °F 42% 30.02 in 10.0 mi WSW 16.1 mph 21.9 mph 0.12 in   Clear
1:53 PM 48.0 °F - 23.0 °F 37% 29.91 in 10.0 mi Variable 6.9 mph 16.1 mph N/A   Clear
2:53 PM 48.9 °F - 23.0 °F 36% 29.96 in 10.0 mi WSW 12.7 mph 20.7 mph N/A   Clear
3:53 PM 50.0 °F - 21.0 °F 32% 29.98 in 10.0 mi West 10.4 mph 19.6 mph N/A   Clear
4:53 PM 48.0 °F - 19.9 °F 33% 29.97 in 10.0 mi West 9.2 mph - N/A   Clear
5:53 PM 46.0 °F 41.9 °F 19.9 °F 35% 29.99 in 10.0 mi West 8.1 mph 16.1 mph N/A   Clear
6:53 PM 44.1 °F 40.8 °F 19.9 °F 38% 29.98 in 10.0 mi WSW 5.8 mph - N/A   Clear
7:53 PM 42.1 °F - 19.0 °F 40% 29.95 in 10.0 mi Calm Calm - N/A   Clear
8:53 PM 37.0 °F 33.3 °F 21.0 °F 52% 29.95 in 10.0 mi South 4.6 mph - N/A   Clear
9:53 PM 36.0 °F - 21.9 °F 57% 29.94 in 10.0 mi Calm Calm - N/A   Clear
10:53 PM 32.0 °F - 21.9 °F 66% 29.94 in 10.0 mi Calm Calm - N/A   Clear
11:53 PM 30.9 °F - 21.9 °F 69% 29.94 in 10.0 mi Calm Calm - N/A   Clear